Location: *
(46.1333°S, 161.2167°W)
Time: 04:34:01
(UTC+00:00)

Cosmos 1939 Rocket - Pass Details

Date: 15 July 2020
Orbit: 532 x 584 km, 97.4° (Epoch: 10 August)

Event Time Altitude Azimuth Distance (km) Brightness Sun altitude
Rises 17:33:39 0° 356° (N) 2,746 6.6 -8.2°
Reaches altitude 10° 17:35:51 10° 348° (NNW) 1,868 5.7 -7.9°
Maximum altitude 17:39:41 40° 277° (W) 863 3.4 -7.3°
Drops below altitude 10° 17:43:38 10° 207° (SSW) 1,923 5.1 -6.6°
Sets 17:45:56 0° 199° (SSW) 2,838 6.0 -6.3°
